Date String (YYYY-MM-DD hh:mm:ss) UTC,Instrument flags,Ambient pressure (hPa),Sample flow (lpm),Bypass flow (lpm),Sample temperature (°C),Ambient temperature (°C),ASC tube jacket temperature (°C),LED temperature (°C),Box temperature (°C),Sample RH (%),Span deviation,Mass concentration (μg/m³),Mass concentration (μg/m³),Mass concentration (μg/m³)
DateTimeUTC,F1_M11,P_M11,Q1_M11,Q2_M11,T1_M11,T2_M11,T3_M11,T4_M11,T5_M11,U1_M11,ZSPAN_M11,X0_M11,X2_M11,X1_M11
2022-09-17 11:00:00,,0824.9,4.99,0.00,30.8,29.3,00.0,39.6,32.6,19.7,0000.0,0013.81,0004.82,0003.89
2022-09-17 11:01:00,,0824.9,5.01,0.00,30.8,29.4,00.0,39.6,32.6,19.7,0000.0,0013.48,0004.91,0003.95
2022-09-17 11:02:00,,0824.9,4.99,0.00,30.9,29.4,00.0,39.6,32.6,19.7,0000.0,0013.06,0004.96,0004.01
2022-09-17 11:03:00,,0824.9,5.01,0.00,30.8,29.3,00.0,39.6,32.6,19.7,0000.0,0012.91,0004.97,0004.06
2022-09-17 11:04:00,,0824.9,4.99,0.00,30.8,29.3,00.0,39.6,32.5,19.7,0000.0,0013.10,0004.99,0004.11
2022-09-17 11:05:00,,0824.9,5.00,0.00,30.9,29.4,00.0,39.7,32.6,19.6,0000.0,0013.26,0005.06,0004.15
2022-09-17 11:06:00,,0824.9,5.00,0.00,30.9,29.4,00.0,39.7,32.6,19.5,0000.0,0013.41,0005.14,0004.18
2022-09-17 11:07:00,,0824.9,4.99,0.00,30.9,29.4,00.0,39.7,32.6,19.3,0000.0,0013.01,0005.12,0004.18
2022-09-17 11:08:00,,0824.9,5.01,0.00,30.9,29.4,00.0,39.7,32.6,19.3,0000.0,0011.49,0005.11,0004.18
2022-09-17 11:09:00,,0825.0,5.00,0.00,30.9,29.4,00.0,39.7,32.6,19.4,0000.0,0011.92,0005.17,0004.19
2022-09-17 11:10:00,,0825.0,5.00,0.00,30.9,29.4,00.0,39.7,32.6,19.3,0000.0,0011.49,0005.12,0004.17
2022-09-17 11:11:00,,0824.9,5.00,0.00,30.9,29.4,00.0,39.7,32.6,19.2,0000.0,0011.45,0005.11,0004.12
2022-09-17 11:12:00,,0825.0,4.98,0.00,30.9,29.4,00.0,39.7,32.6,19.1,0000.0,0010.96,0005.01,0004.06
2022-09-17 11:13:00,,0825.0,5.00,0.00,30.9,29.3,00.0,39.7,32.6,19.0,0000.0,0010.94,0004.97,0004.00
2022-09-17 11:14:00,,0825.0,5.01,0.00,30.9,29.4,00.0,39.7,32.6,18.9,0000.0,0010.94,0004.90,0003.93
2022-09-17 11:15:00,,0825.0,4.99,0.00,30.9,29.4,00.0,39.7,32.6,19.1,0000.0,0011.39,0004.84,0003.88
2022-09-17 11:16:00,,0825.0,5.00,0.00,30.9,29.4,00.0,39.7,32.6,19.1,0000.0,0011.23,0004.76,0003.83
2022-09-17 11:17:00,,0825.0,5.00,0.00,30.9,29.3,00.0,39.7,32.6,19.1,0000.0,0011.87,0004.69,0003.80
2022-09-17 11:18:00,,0825.0,5.00,0.00,30.9,29.3,00.0,39.7,32.6,18.9,0000.0,0011.56,0004.66,0003.79
2022-09-17 11:19:00,,0825.0,5.01,0.00,30.9,29.3,00.0,39.7,32.6,18.7,0000.0,0011.28,0004.61,0003.77
2022-09-17 11:20:00,,0825.1,4.99,0.00,30.9,29.4,00.0,39.7,32.6,18.6,0000.0,0011.34,0004.56,0003.74
2022-09-17 11:21:00,,0825.1,5.00,0.00,30.9,29.4,00.0,39.7,32.6,18.6,0000.0,0011.49,0004.54,0003.72
2022-09-17 11:22:00,,0825.0,5.01,0.00,30.9,29.4,00.0,39.7,32.6,18.8,0000.0,0011.19,0004.50,0003.69
2022-09-17 11:23:00,,0825.1,4.99,0.00,30.9,29.4,00.0,39.7,32.6,19.0,0000.0,0011.38,0004.49,0003.69
2022-09-17 11:24:00,,0825.1,5.00,0.00,30.9,29.4,00.0,39.7,32.6,19.1,0000.0,0011.34,0004.51,0003.72
2022-09-17 11:25:00,,0825.1,5.01,0.00,30.9,29.4,00.0,39.7,32.6,19.1,0000.0,0011.37,0004.54,0003.77
2022-09-17 11:26:00,,0825.2,4.98,0.00,30.9,29.4,00.0,39.7,32.6,19.1,0000.0,0010.45,0004.58,0003.79
2022-09-17 11:27:00,,0825.2,5.00,0.00,30.9,29.4,00.0,39.7,32.6,19.0,0000.0,0010.47,0004.59,0003.80
2022-09-17 11:28:00,,0825.2,5.01,0.00,30.9,29.4,00.0,39.7,32.6,19.1,0000.0,0010.28,0004.57,0003.80
2022-09-17 11:29:00,,0825.2,4.99,0.00,30.9,29.4,00.0,39.7,32.6,19.0,0000.0,0010.47,0004.54,0003.80
2022-09-17 11:30:00,,0825.2,5.00,0.00,30.9,29.4,00.0,39.7,32.6,18.9,0000.0,0010.55,0004.54,0003.80
2022-09-17 11:31:00,,0825.2,4.99,0.00,30.9,29.4,00.0,39.7,32.6,18.8,0000.0,0010.82,0004.50,0003.79
2022-09-17 11:32:00,,0825.3,5.00,0.00,30.9,29.4,00.0,39.7,32.6,18.8,0000.0,0010.88,0004.47,0003.78
2022-09-17 11:33:00,,0825.3,5.01,0.00,30.9,29.4,00.0,39.7,32.6,18.9,0000.0,0011.07,0004.48,0003.80
2022-09-17 11:34:00,,0825.3,5.01,0.00,30.9,29.4,00.0,39.7,32.6,18.9,0000.0,0011.01,0004.48,0003.79
2022-09-17 11:35:00,,0825.3,4.99,0.00,30.9,29.4,00.0,39.7,32.6,18.9,0000.0,0010.90,0004.44,0003.77
2022-09-17 11:36:00,,0825.4,5.01,0.00,30.9,29.3,00.0,39.7,32.6,18.9,0000.0,0010.77,0004.36,0003.73
2022-09-17 11:37:00,,0825.4,5.00,0.00,30.9,29.3,00.0,39.7,32.6,19.1,0000.0,0010.87,0004.32,0003.70
2022-09-17 11:38:00,,0825.3,4.99,0.00,30.9,29.3,00.0,39.7,32.6,19.1,0000.0,0011.02,0004.31,0003.69
2022-09-17 11:39:00,,0825.3,5.00,0.00,30.9,29.3,00.0,39.7,32.6,19.1,0000.0,0010.38,0004.30,0003.68
2022-09-17 11:40:00,,0825.3,5.00,0.00,30.9,29.3,00.0,39.7,32.6,19.1,0000.0,0010.73,0004.32,0003.68
2022-09-17 11:41:00,,0825.3,5.00,0.00,30.9,29.3,00.0,39.7,32.6,19.0,0000.0,0011.00,0004.35,0003.70
2022-09-17 11:42:00,,0825.3,5.01,0.00,30.9,29.3,00.0,39.7,32.6,19.1,0000.0,0010.24,0004.36,0003.73
2022-09-17 11:43:00,,0825.3,4.99,0.00,30.9,29.3,00.0,39.7,32.6,19.1,0000.0,0010.36,0004.40,0003.76
2022-09-17 11:44:00,,0825.3,5.00,0.00,30.9,29.4,00.0,39.7,32.6,19.1,0000.0,0010.76,0004.44,0003.77
2022-09-17 11:45:00,,0825.3,5.01,0.00,30.9,29.4,00.0,39.7,32.6,19.0,0000.0,0010.95,0004.43,0003.78
2022-09-17 11:46:00,,0825.3,5.00,0.00,30.9,29.3,00.0,39.7,32.6,19.0,0000.0,0011.20,0004.44,0003.77
2022-09-17 11:47:00,,0825.3,4.99,0.00,30.9,29.4,00.0,39.7,32.6,18.9,0000.0,0012.21,0004.48,0003.77
2022-09-17 11:48:00,,0825.4,5.01,0.00,30.9,29.4,00.0,39.7,32.6,19.2,0000.0,0012.61,0004.49,0003.79
2022-09-17 11:49:00,,0825.3,4.99,0.00,30.9,29.4,00.0,39.7,32.6,19.0,0000.0,0012.25,0004.47,0003.79
2022-09-17 11:50:00,,0825.4,4.99,0.00,30.9,29.4,00.0,39.7,32.6,18.9,0000.0,0012.25,0004.43,0003.78
2022-09-17 11:51:00,,0825.4,5.01,0.00,30.9,29.3,00.0,39.7,32.6,19.0,0000.0,0011.54,0004.41,0003.77
2022-09-17 11:52:00,,0825.4,5.01,0.00,30.9,29.4,00.0,39.7,32.6,18.9,0000.0,0011.14,0004.38,0003.77
2022-09-17 11:53:00,,0825.3,4.99,0.00,30.9,29.4,00.0,39.7,32.6,18.8,0000.0,0011.12,0004.36,0003.74
2022-09-17 11:54:00,,0825.4,5.01,0.00,30.9,29.4,00.0,39.7,32.6,18.7,0000.0,0010.51,0004.33,0003.72
2022-09-17 11:55:00,,0825.3,5.00,0.00,30.9,29.4,00.0,39.7,32.6,18.7,0000.0,0009.99,0004.28,0003.70
2022-09-17 11:56:00,,0825.3,4.99,0.00,30.9,29.4,00.0,39.7,32.6,18.7,0000.0,0009.72,0004.30,0003.70
2022-09-17 11:57:00,,0825.4,5.00,0.00,30.9,29.4,00.0,39.7,32.6,18.5,0000.0,0009.42,0004.28,0003.68
2022-09-17 11:58:00,,0825.4,5.01,0.00,30.9,29.4,00.0,39.7,32.6,18.5,0000.0,0008.49,0004.25,0003.67
2022-09-17 11:59:00,,0825.4,4.99,0.00,30.9,29.4,00.0,39.7,32.6,18.6,0000.0,0007.80,0004.20,0003.65
